Location: Unspecified
(0.0000°N, 0.0000°E)
Time: 19:00:21
(UTC+00:00)

Vanguard 2 Rocket - Pass Details

Date: 19 January 2020
Orbit: 554 x 3327 km, 32.9° (Epoch: 20 February)

Event Time Altitude Azimuth Distance (km) Brightness Sun altitude
Rises 13:33:06 0° 310° (NW) 6,009 11.1 61.3°
Reaches altitude 10° 13:36:35 10° 312° (NW) 5,291 10.9 60.7°
Maximum altitude 13:54:03 77° 37° (NE) 3,321 10.5 57.5°
Drops below altitude 10° 14:14:16 10° 121° (ESE) 6,000 11.0 53.5°
Sets 14:18:29 0° 122° (ESE) 6,811 11.2 52.7°
